Location: Kermapucano
(48.0667°N, 3.3000°W)
Time: 19:52:10
(UTC+00:00)

Cosmos 1943 - Pass Details

Date: 29 November 2020
Orbit: 832 x 851 km, 71.0° (Epoch: 27 January)

Event Time Altitude Azimuth Distance (km) Brightness Sun altitude
Exits shadow 05:18:48 31° 221° (SW) 1,449 4.1 -22.9°
Drops below altitude 10° 05:22:24 10° 188° (S) 2,470 5.6 -22.3°
Sets 05:25:00 0° 181° (S) 3,400 6.4 -21.8°
